DW4326 Weather Reports


time (UTC)temp
F
wind
direction
speed
knots
gust
knots
rain 1hr
in
rain 24hr
in
rain mn
in
humidity
%
barometer
mb
20260505000821 61 322 0.0 1.7 0.00 0.01 0.01 54 1005.1
20260505000049 64 99 0.0 4.3 0.00 0.01 0.01 46 1004.9
20260504233815 65 190 1.7 7.8 0.00 0.01 0.01 41 1004.7
20260504232317 65 210 0.0 7.0 0.00 0.01 0.01 40 1004.4
20260504230816 66 351 1.7 7.8 0.00 0.01 0.01 36 1004.2
20260504225315 66 219 0.9 7.8 0.00 0.01 0.01 43 1004.2
20260504223815 67 171 0.9 7.0 0.00 0.01 0.01 37 1003.9
20260504223046 67 315 0.9 15.6 0.00 0.01 0.01 35 1004.0
20260504220817 68 190 2.6 6.1 0.00 0.01 0.01 35 1004.0
20260504215314 68 157 2.6 14.8 0.00 0.01 0.01 37 1004.0
20260504213809 68 154 3.5 13.0 0.00 0.01 0.01 36 1004.0
20260504212307 68 319 3.5 11.3 0.00 0.01 0.01 37 1003.8
20260504210801 68 45 3.5 13.9 0.00 0.01 0.01 35 1003.9
20260504205304 68 89 4.3 13.9 0.00 0.01 0.01 37 1003.9
20260504204526 67 197 1.7 15.6 0.00 0.01 0.01 40 1004.3
20260504202256 67 5 4.3 16.5 0.00 0.01 0.01 36 1004.4
20260504200750 68 196 6.1 13.0 0.00 0.01 0.01 38 1004.2
20260504195249 67 148 2.6 8.7 0.00 0.01 0.01 39 1004.3
20260504193744 67 126 4.3 12.2 0.00 0.01 0.01 39 1004.3
20260504192245 68 150 3.5 12.2 0.00 0.01 0.01 38 1004.5
20260504190737 69 297 3.5 13.9 0.00 0.01 0.01 37 1004.7
20260504185238 68 90 2.6 17.4 0.00 0.01 0.01 40 1004.6
20260504183738 67 125 3.5 13.0 0.00 0.01 0.01 44 1005.1
20260504183733 67 325 5.2 17.4 0.00 0.01 0.01 38 1005.3
20260504180726 67 21 4.3 13.9 0.00 0.01 0.01 41 1004.9
20260504175227 66 180 3.5 13.0 0.00 0.01 0.01 44 1004.8
20260504174450 65 279 2.6 11.3 0.00 0.01 0.01 46 1004.9
20260504172219 64 9 2.6 8.7 0.00 0.01 0.01 45 1005.3
20260504170715 62 5 4.3 12.2 0.00 0.01 0.01 47 1005.6
20260504150702 58 274 3.5 12.2 0.00 0.01 0.01 47 1006.0
20260504140657 60 295 4.3 13.0 0.00 0.01 0.01 47 1006.1
20260504130657 51 0 1.7 11.3 0.00 0.01 0.01 69 1006.1
20260504110639 38 287 0.0 0.0 0.00 0.01 0.01 94 1007.0
20260504081346 36 297 0.0 0.0 0.00 0.02 0.01 93 1007.1
20260504045105 32 330 0.0 0.0 0.00 0.01 0.00 87 1008.0
20260504043605 32 330 0.0 0.0 0.00 0.01 0.00 88 1008.1
20260504042105 32 330 0.0 0.0 0.00 0.01 0.00 88 1008.2
20260504040607 31 330 0.0 0.0 0.00 0.01 0.00 88 1008.1
20260504035105 31 330 0.0 0.0 0.00 0.01 0.01 87 1008.0
20260504034336 31 330 0.0 0.0 0.00 0.01 0.01 86 1008.0
20260504032103 31 330 0.0 0.0 0.00 0.01 0.01 85 1008.0
20260504030602 32 330 0.0 0.0 0.00 0.01 0.01 85 1008.1
20260504025103 32 330 0.0 0.0 0.00 0.01 0.01 84 1008.1
20260504023604 33 330 0.0 0.0 0.00 0.01 0.01 83 1008.1
20260504022102 33 330 0.0 0.0 0.00 0.01 0.01 83 1008.1
20260504020602 34 330 0.0 0.0 0.00 0.01 0.01 81 1008.0
20260504015834 35 330 0.0 0.0 0.00 0.01 0.01 80 1008.0
20260504013601 35 330 0.0 0.0 0.00 0.01 0.01 79 1007.9
20260504012830 36 330 0.0 0.0 0.00 0.01 0.01 78 1007.8
20260504010558 37 330 0.0 0.0 0.00 0.01 0.01 75 1007.7
20260504005058 38 330 0.0 0.0 0.00 0.01 0.01 74 1007.4
20260504003556 40 330 0.0 0.0 0.00 0.01 0.01 71 1007.3
20260504002052 41 330 0.0 0.0 0.00 0.01 0.01 69 1007.2